Погода в Есиле

Погода в Есиле : погода сейчас, прогноз погоды и архив. Всё, что Вы хотите узнать о погоде в Есиле!

Хотите узнать прогноз погоды в Есиле? Тогда Вам сюда: Погода в Есиле

Поиск расширенной информации на нашем сайте:

Другие новости

Новости СМИ2

Главная страница сайта

Новости сайта

02.10.2013

Напоминаем, что на нашем новом сайте вы можете получить высокодетализированные прогнозы погоды по пунктам России, СНГ и мира (включающие важные для авиации метеовеличины, такие как направление и скорость ветра, видимость, явления погоды, количество и форма облачности, нижняя и верхняя граница облачности), а также ознакомиться с разнообразными материалами по авиационной метеорологии и подборкой полезных ссылок на эту тему.

Сайт Метеоцентр.Азия посвящён разработке технологий оптимизации авиаметеорологического обслуживания, включая проектирование и перспективное создание нескольких автоматизированных авиаметеорологических систем:
- система выпуска высокодетальных прогностических карт явлений погоды для нижнего воздушного пространства по России и ближнему зарубежью;
- система верификации прогнозов TAF (выпускаемых синоптиками официальных АМСГ РФ и ближнего зарубежья) и AUTOTAF (выпускаемых сайтом Метеоцентр.Азия) - выявление ошибок, онлайн-сопоставление с фактической погодой METAR, автоматическое внесение коррективов в прогнозы при резком отклонении фактической погоды от прогноза, подсчёт оправдываемости прогнозов по элементам и в целом;
- система обработки, анализа и отображения авиаметеорологической информации для применения провайдерами метеорологической информации.

Рекомендуем: тумба челябинск

Погода в Есиле - сегодня

Время (UTC), дата Ветер
(°,м/с) 
Видим.   Явления Облачность Т
(°С)
Тd
(°С)
f(%) Тe
(°С)
Pmin
(гПа)
dP
(гПа)
Po
(мм)
O2
(г/м3)
Тmin Tmax R s Состояние
почвы
21 17.01.17 110 (В) н/о    6/0 верхняя 
[Cs]
-19.6 -22.3 79 -20  1040.8  -1.2  758  331           
00 18.01.17 110 (В) н/о    ясно 
-23.2 -26.1 77 -26  1040.5  -0.7  757  335           
03 18.01.17 110 (В) н/о    ясно 
-23.6 -26.4 78 -27  1039.7  -0.8  757  336        16  равномерный
сухой снег
100% 
06 18.01.17 тихо ()   20000 м    ясно 
-20.3 -23.4 76 -20  1039.1  -0.2  757  331  -24         
09 18.01.17 090 (В) 20000 м    ясно 
-13.9 -17.9 72 -16  1036.8  -1.5  755  322           
12 18.01.17 090 (В) 20000 м    4/0 верхняя 
[Cs]
-14.2 -18.2 72 -16  1036.4  -0.4  755  322           
15 18.01.17 090 (В) н/о    3/0 верхняя 
[Ci fib]
-16.8 -20.3 74 -17  1036  -0.7  755  326    -13.3       
18 18.01.17 090 (В) н/о    3/0 верхняя 
[Ci fib]
-19.7 -23 75 -20  1034.8  -1.5  753  329    -13.3       
21 18.01.17 тихо ()   н/о    5/0 средняя, верхняя 
[Ac trans|Cs]
-19.3 -22.3 77 -19  1033  -1.7  752  328           
00 19.01.17 090 (В) н/о    3/0 верхняя 
[Cs]
-21.3 -24.1 78 -22  1032.3  -0.9  752  330           
03 19.01.17 тихо ()   н/о    4/0 верхняя 
[Ci fib]
-21.5 -24.3 78 -22  1031.3  -1  751  330        16  равномерный
сухой снег
100% 
06 19.01.17 140 (ЮВ) 20000 м    6/0 верхняя 
[Cs]
-17.7 -21.1 75 -18  1030.9  751  325  -21.9         
09 19.01.17 140 (ЮВ) 20000 м    5/0 верхняя 
[Cc]
-12.4 -17.1 68 -12  1028.2  -2  749  318           
12 19.01.17 тихо ()   20000 м    3/0 верхняя 
[Cs]
-14.8 -18.7 72 -15  1028.1  -0.3  749  321           
15 19.01.17 тихо ()   н/о    3/0 верхняя 
[Ci fib]
-19.7 -23.3 73 -20  1027.3  -1.4  748  326    -12       
18 19.01.17 140 (ЮВ) н/о  слаб. снег  10/0 средняя 
[As op]
-16.3 -19.2 78 -16  1025.5  -1.3  747  322    -12       
21 19.01.17 110 (В) н/о  слаб. снег  10/0 средняя 
[As op]
-16.2 -19.2 78 -16  1024.2  -1.3  746  321           
00 20.01.17 180 (Ю) н/о  {снег}  4/0 средняя 
[As trans]
-18 -21.1 77 -21  1023.6  -0.8  745  323           
03 20.01.17 180 (Ю) н/о    3/0 верхняя 
[Cs]
-20.4 -23.5 76 -25  1023.2  -0.6  745  326      0.2  16  равномерный
сухой снег
100% 
06 20.01.17 180 (Ю) 20000 м    6/0 средняя, верхняя 
[Ac trans|Cs]
-19.7 -23.3 73 -25  1022.7  -0.4  745  325  -20.8    0.2     
09 20.01.17 160 (Ю) 20000 м    8/0 средняя, верхняя 
[Ac As|Cs]
-17.7 -22 69 -24  1020.7  -1.8  743  322           
12 20.01.17 200 (Ю) 20000 м  позёмок  6/0 средняя 
[Ac As]
-17.5 -21.5 71 -24  1019.4  -1.2  742  321           
15 20.01.17 200 (Ю) н/о  позёмок  3/0 верхняя 
[Ci fib]
-19.7 -23.6 71 -26  1018.6  -1  742  324    -16.5       
18 20.01.17 230 (ЮЗ) н/о  слаб. снег  10/0 средняя 
[As op]
-18.5 -22.5 71 -24  1016.7  -1.7  740  322    -16.5       
21 20.01.17 230 (ЮЗ) н/о  слаб. снег  10/0 средняя 
[As op]
-16.2 -20.1 72 -22  1014.4  -2  739  318           
Время (UTC), дата Ветер
(°,м/с) 
Видим.   Явления Облачность Т
(°С)
Тd
(°С)
f(%) Тe
(°С)
Pmin
(гПа)
dP
(гПа)
Po
(мм)
O2
(г/м3)
Тmin Tmax R s Состояние
почвы

Для получения пояснительной информации подведите курсор к названию столбца.

ПОГОДА в Есиле - архив

Всё, что Вы хотите узнать о погоде в Есиле - удобно и подробно!

Выберите нужную дату (начиная с 1 января 2015* года) и нажмите кнопку "Найти".
Будут отображены архивные сводки погоды по пункту Есиль, начиная с указанной даты.


Отображать данные в формате CSV (для использования в таблицах Excel)


Внимание! Наш архив погоды предназначен исключительно для личного некоммерческого использования в познавательных целях. Если Вам необходимы официальные справки о состоянии погоды (для производственных, юридических, коммерческих и т.п. целей), обращайтесь в органы Росгидромета.

*Примечание: данная дата относится к архиву по метеостанциям СССР (Россия, СНГ, Балтия).
Архив по метеостанциям Зарубежной Европы и Азии (кроме Китая) хранится 10 дней, по другим регионам земного шара (Китай, Африка, Америка, Австралия, Океания) - 1 день.

Есиль - район местоположения метеостанции


Название, широта, долгота, высота метеостанции:
Есиль 51.9°ш. 66.3°д. 221 м над ур. моря [Казахстан]

Дополнительная информация

В oтличие oт бoльшинства пoгoдных сайтoв мы публикуем пoдрoбную метеoинфoрмацию в детальнoм прoфессиoнальнoм фoрмате.

Характеристики температуры и влажнoсти вoздуха измеряются на высoте 2 м в тени вдали oт зданий и деревьев.
Скoрoсть ветра измеряется на высoте 10 м (на урoвне рoста челoвека скoрoсть ветра ниже в 1.5-2 раза). Если метеoстанция нахoдится в гoрoде или в лесу, тo скoрoсть ветра занижена на 2-4 м/с пo сравнению с oткрытым местoм. Скoрoсть ветра над акватoриями крупных рек и oзёр, а также на вершинах хoлмoв на 2-5 м/с выше, чем в oбычных услoвиях.
Атмoсфернoе давление в разных тoчках местнoсти мoжет значительнo oтличаться oт давления на метеoстанции, в зависимoсти oт услoвий рельефа (при пoдъёме на 10 м давление пoнижается примернo на 1 мм рт.ст.).